Hourly Weather Paris

Today, 1 October, Thursday

Time Temperature Precipitation Wind Pressure Humidity
00:00 +15°C° 0 mm 4 mps 749 mmHg 76%
01:00 +15°C° 0.8 mm 5 mps 748 mmHg 79%
02:00 +14°C° 0.8 mm 5 mps 747 mmHg 83%
03:00 +14°C° 0.8 mm 5 mps 746 mmHg 86%
04:00 +14°C° 1.6 mm 5 mps 746 mmHg 88%
05:00 +14°C° 1.6 mm 5 mps 746 mmHg 89%
06:00 +14°C° 0 mm 5 mps 746 mmHg 90%
07:00 +14°C° 2.1 mm 5 mps 746 mmHg 87%
08:00 +14°C° 2.1 mm 5 mps 745 mmHg 84%
09:00 +14°C° 2.1 mm 4 mps 745 mmHg 80%
10:00 +15°C° 0.2 mm 5 mps 746 mmHg 72%
11:00 +16°C° 0.2 mm 6 mps 746 mmHg 64%
12:00 +17°C° 0.2 mm 6 mps 746 mmHg 56%
13:00 +17°C° 0.1 mm 6 mps 746 mmHg 53%
14:00 +17°C° 0.1 mm 5 mps 746 mmHg 51%
15:00 +17°C° 0.1 mm 5 mps 746 mmHg 48%
16:00 +17°C° 0 mm 4 mps 746 mmHg 51%
17:00 +15°C° 0 mm 4 mps 746 mmHg 54%
18:00 +14°C° 0 mm 3 mps 745 mmHg 57%
19:00 +14°C° 0 mm 3 mps 745 mmHg 59%
20:00 +13°C° 0 mm 3 mps 745 mmHg 62%
21:00 +13°C° 0 mm 3 mps 744 mmHg 65%
22:00 +13°C° 0 mm 3 mps 743 mmHg 68%
23:00 +12°C° 0 mm 4 mps 742 mmHg 72%

Tomorrow, 2 October, Friday

Time Temperature Precipitation Wind Pressure Humidity
00:00 +12°C° 0 mm 5 mps 741 mmHg 76%
01:00 +12°C° 0.2 mm 5 mps 740 mmHg 78%
02:00 +11°C° 0.2 mm 6 mps 738 mmHg 79%
03:00 +11°C° 0.2 mm 6 mps 737 mmHg 81%
04:00 +11°C° 1.5 mm 7 mps 736 mmHg 83%
05:00 +11°C° 1.5 mm 8 mps 736 mmHg 85%
06:00 +11°C° 1.5 mm 8 mps 735 mmHg 86%
07:00 +12°C° 0.9 mm 7 mps 735 mmHg 85%
08:00 +13°C° 0.9 mm 6 mps 735 mmHg 84%
09:00 +14°C° 0.9 mm 5 mps 736 mmHg 83%
10:00 +14°C° 0.4 mm 4 mps 736 mmHg 82%
11:00 +14°C° 0.4 mm 4 mps 735 mmHg 80%
12:00 +14°C° 0.4 mm 3 mps 735 mmHg 78%
13:00 +14°C° 1.3 mm 3 mps 735 mmHg 81%
14:00 +14°C° 1.3 mm 3 mps 735 mmHg 83%
15:00 +13°C° 1.3 mm 3 mps 735 mmHg 85%
16:00 +14°C° 1.6 mm 2 mps 735 mmHg 86%
17:00 +14°C° 1.6 mm 2 mps 735 mmHg 87%
18:00 +13°C° 1.6 mm 1 mps 735 mmHg 89%
19:00 +13°C° 0.5 mm 1 mps 735 mmHg 87%
20:00 +13°C° 0.5 mm 2 mps 735 mmHg 86%
21:00 +12°C° 0.5 mm 3 mps 735 mmHg 85%
22:00 +13°C° 0.2 mm 2 mps 735 mmHg 85%
23:00 +13°C° 0.2 mm 2 mps 736 mmHg 85%

Day after tomorrow, 3 October, Saturday

Time Temperature Precipitation Wind Pressure Humidity
00:00 +13°C° 0.2 mm 2 mps 736 mmHg 85%
01:00 +12°C° 0.5 mm 2 mps 736 mmHg 85%
02:00 +12°C° 0.5 mm 2 mps 736 mmHg 85%
03:00 +12°C° 0.5 mm 2 mps 736 mmHg 85%
04:00 +12°C° 0 mm 2 mps 736 mmHg 85%
05:00 +10°C° 0 mm 2 mps 736 mmHg 86%
06:00 +10°C° 0 mm 3 mps 736 mmHg 86%
07:00 +11°C° 0 mm 3 mps 736 mmHg 80%
08:00 +12°C° 0 mm 4 mps 736 mmHg 75%
09:00 +12°C° 0 mm 4 mps 736 mmHg 69%
10:00 +13°C° 0 mm 4 mps 736 mmHg 68%
11:00 +13°C° 0 mm 4 mps 736 mmHg 66%
12:00 +14°C° 0 mm 3 mps 735 mmHg 65%
13:00 +14°C° 0.3 mm 3 mps 735 mmHg 67%
14:00 +15°C° 0.3 mm 2 mps 735 mmHg 70%
15:00 +14°C° 0.3 mm 1 mps 735 mmHg 72%
16:00 +14°C° 0.7 mm 2 mps 734 mmHg 75%
17:00 +14°C° 0.7 mm 2 mps 734 mmHg 78%
18:00 +13°C° 0.7 mm 2 mps 734 mmHg 81%
19:00 +12°C° 0.2 mm 3 mps 733 mmHg 81%
20:00 +12°C° 0.2 mm 4 mps 733 mmHg 81%
21:00 +11°C° 0.2 mm 4 mps 733 mmHg 81%
22:00 +11°C° 0.2 mm 4 mps 733 mmHg 82%
23:00 +11°C° 0.2 mm 4 mps 733 mmHg 83%

4 October, Sunday

Time Temperature Precipitation Wind Pressure Humidity
00:00 +10°C° 0.2 mm 4 mps 733 mmHg 84%
01:00 +9°C° 0.4 mm 5 mps 734 mmHg 84%
02:00 +9°C° 0.4 mm 7 mps 734 mmHg 83%
03:00 +9°C° 0.4 mm 8 mps 735 mmHg 83%
04:00 +9°C° 0.4 mm 8 mps 735 mmHg 80%
05:00 +9°C° 0.4 mm 8 mps 736 mmHg 78%
06:00 +7°C° 0.4 mm 8 mps 737 mmHg 75%
07:00 +9°C° 0 mm 8 mps 737 mmHg 73%
08:00 +10°C° 0 mm 8 mps 738 mmHg 72%
09:00 +11°C° 0 mm 8 mps 738 mmHg 70%
10:00 +12°C° 0 mm 8 mps 738 mmHg 66%
11:00 +13°C° 0 mm 8 mps 739 mmHg 62%
12:00 +15°C° 0 mm 8 mps 739 mmHg 58%
13:00 +15°C° 0.1 mm 8 mps 739 mmHg 57%
14:00 +15°C° 0.1 mm 8 mps 739 mmHg 56%
15:00 +15°C° 0.1 mm 8 mps 739 mmHg 55%
16:00 +15°C° 0 mm 7 mps 739 mmHg 58%
17:00 +14°C° 0 mm 7 mps 739 mmHg 61%
18:00 +13°C° 0 mm 6 mps 740 mmHg 63%
19:00 +13°C° 0 mm 6 mps 740 mmHg 65%
20:00 +13°C° 0 mm 6 mps 741 mmHg 67%
21:00 +11°C° 0 mm 6 mps 741 mmHg 68%
22:00 +11°C° 0 mm 6 mps 741 mmHg 70%
23:00 +11°C° 0 mm 6 mps 742 mmHg 71%

5 October, Monday

Time Temperature Precipitation Wind Pressure Humidity
00:00 +10°C° 0 mm 6 mps 742 mmHg 73%
01:00 +10°C° 0 mm 7 mps 742 mmHg 73%
02:00 +10°C° 0 mm 7 mps 742 mmHg 72%
03:00 +10°C° 0 mm 7 mps 742 mmHg 72%
04:00 +10°C° 0.5 mm 7 mps 742 mmHg 75%
05:00 +10°C° 0.5 mm 8 mps 742 mmHg 79%
06:00 +10°C° 0.5 mm 8 mps 742 mmHg 82%
07:00 +10°C° 2 mm 8 mps 742 mmHg 83%
08:00 +10°C° 2 mm 9 mps 742 mmHg 85%
09:00 +11°C° 2 mm 9 mps 742 mmHg 86%
10:00 +11°C° 1.4 mm 9 mps 743 mmHg 85%
11:00 +11°C° 1.4 mm 9 mps 743 mmHg 85%
12:00 +11°C° 1.4 mm 9 mps 744 mmHg 85%
13:00 +12°C° 0.9 mm 8 mps 744 mmHg 85%
14:00 +12°C° 0.9 mm 8 mps 744 mmHg 85%
15:00 +12°C° 0.9 mm 7 mps 745 mmHg 85%
16:00 +12°C° 0.4 mm 7 mps 745 mmHg 84%
17:00 +12°C° 0.4 mm 7 mps 745 mmHg 83%
18:00 +13°C° 0.4 mm 6 mps 746 mmHg 82%
19:00 +13°C° 0.3 mm 6 mps 747 mmHg 81%
20:00 +12°C° 0.3 mm 7 mps 747 mmHg 80%
21:00 +12°C° 0.3 mm 7 mps 748 mmHg 79%
22:00 +11°C° 0 mm 6 mps 748 mmHg 79%
23:00 +11°C° 0 mm 6 mps 748 mmHg 80%

6 October, Tuesday

Time Temperature Precipitation Wind Pressure Humidity
00:00 +10°C° 0 mm 6 mps 749 mmHg 80%
01:00 +10°C° 0 mm 6 mps 749 mmHg 81%
02:00 +9°C° 0 mm 6 mps 749 mmHg 81%
03:00 +9°C° 0 mm 6 mps 749 mmHg 82%
04:00 +9°C° 0 mm 5 mps 749 mmHg 82%
05:00 +9°C° 0 mm 5 mps 750 mmHg 82%
06:00 +9°C° 0 mm 5 mps 750 mmHg 81%
07:00 +10°C° 0 mm 5 mps 750 mmHg 81%
08:00 +10°C° 0 mm 5 mps 750 mmHg 80%
09:00 +12°C° 0 mm 5 mps 750 mmHg 80%
10:00 +13°C° 0 mm 5 mps 749 mmHg 76%
11:00 +14°C° 0 mm 5 mps 749 mmHg 72%
12:00 +15°C° 0 mm 5 mps 749 mmHg 68%
13:00 +15°C° 0.3 mm 5 mps 748 mmHg 73%
14:00 +14°C° 0.3 mm 5 mps 748 mmHg 78%
15:00 +14°C° 0.3 mm 4 mps 747 mmHg 83%
16:00 +14°C° 0.3 mm 4 mps 747 mmHg 81%
17:00 +14°C° 0.3 mm 4 mps 747 mmHg 78%
18:00 +13°C° 0.3 mm 5 mps 747 mmHg 76%
19:00 +13°C° 0.1 mm 5 mps 748 mmHg 76%
20:00 +13°C° 0.1 mm 5 mps 748 mmHg 76%
21:00 +13°C° 0.1 mm 6 mps 749 mmHg 76%
22:00 +13°C° 0.2 mm 6 mps 749 mmHg 78%
23:00 +11°C° 0.2 mm 6 mps 749 mmHg 81%
Show more

We Need Your Consent

Meteoprog and our Service Providers may store and access personal data such as cookies, device identifiers or other similar technologies on your device and process such data to personalise content and ads, as well as provide social media features and to analyse the traffic.

  • Store and/or access information on your device

    Cookies, device identifiers or other information can be stored or accessed on your device for the purposes indicated above.

  • Personalised ads and content, ad and content measurement, audience insights, and products development

    Ads and content can be personalised based on a profile. More data can be added to better personalise ads and content. Ad and content performance can be measured. Insights about the audience who saw the ads and content can be derived. Such data can be used to develop or improve user’s experience, systems and software.

By clicking ‘I Agree’ you will allow the use of indicated cookies, device identifiers, web beacons or other similar technologies. Your settings can be changed in the browser on your device.

For certain purposes, legitimate interests may be relied on, rather than consent. You can read more about this in our Privacy and Cookie Policy.